Weather History for Kimball, NE

Change the Weather History Date:

Monday, May 19, 2014

  Actual Average (KSNY) Record (KSNY)
Temperature  
Mean Temperature 62 °F 58 °F  
Max Temperature 76 °F 72 °F 96 °F (2009)
Min Temperature 47 °F 45 °F 29 °F (1981)
Degree Days  
Heating Degree Days 4 7  
Month to date heating degree days 183  
Since 1 July heating degree days 6095  
Cooling Degree Days 0 1  
Month to date cooling degree days 10  
Year to date cooling degree days 11  
Growing Degree Days 12 (Base 50)    
Moisture  
Dew Point 41 °F    
Average Humidity 52    
Maximum Humidity 87    
Minimum Humidity 20    
Precipitation  
Precipitation 0.00 in 0.10 in 1.26 in (2011)
Month to date precipitation 1.82  
Year to date precipitation 5.49  
Sea Level Pressure  
Sea Level Pressure 29.77 in    
Wind  
Wind Speed 9 mph (North)    
Max Wind Speed 29 mph    
Max Gust Speed 40 mph    
Visibility 10 miles    
Events Thunderstorm    
T = Trace of Precipitation, MM = Missing Value Source: NWS Daily Summary

Daily Weather History Graph

Daily Weather History Graph

Search for Another Location

Airport:

Trip Planner

Search our weather history database for the weather conditions in past years. The results will help you decide how hot, cold, wet, or windy it might be!

Date:

Astronomy

May. 19, 2014 Rise Set
Actual Time 6:32 AM CDT 9:10 PM CDT
Civil Twilight 6:00 AM CDT 9:42 PM CDT
Nautical Twilight 5:21 AM CDT 10:21 PM CDT
Astronomical Twilight 4:36 AM CDT 11:07 PM CDT
Moon 12:58 AM CDT (5/19) 11:33 AM CDT (5/19)
Length of Visible Light 15h 41m
Length of Day
14h 37m
Waning Gibbous, 71% of the Moon is Illuminated
May 19
Waning Gibbous
May 21
Last Quarter
May 28
New
Jun 5
First Quarter
Jun 12
Full

Hourly Weather History & Observations

Time (CDT) Temp. Dew Point Humidity Pressure Visibility Wind Dir Wind Speed Gust Speed Precip Events Conditions
12:15 AM 54.5 °F 48.2 °F 79% 29.66 in 10.0 mi East 10.4 mph - N/A   Clear
12:35 AM 54.7 °F 47.5 °F 77% 29.66 in 10.0 mi ESE 9.2 mph - N/A Thunderstorm Clear
1:15 AM 53.1 °F 46.9 °F 80% 29.66 in 10.0 mi South 4.6 mph - N/A   Clear
1:35 AM 52.3 °F 47.3 °F 83% 29.67 in 10.0 mi NW 12.7 mph 17.3 mph N/A   Clear
1:55 AM 51.6 °F 46.6 °F 83% 29.67 in 10.0 mi NW 3.5 mph - N/A   Clear
2:15 AM 49.3 °F 45.1 °F 86% 29.67 in 10.0 mi WNW 5.8 mph - N/A   Clear
2:35 AM 49.1 °F 45.5 °F 87% 29.67 in 10.0 mi West 3.5 mph - N/A   Clear
2:55 AM 47.8 °F 44.1 °F 87% 29.67 in 10.0 mi NW 6.9 mph - N/A   Clear
3:15 AM 49.6 °F 45.7 °F 86% 29.68 in 10.0 mi WNW 3.5 mph - N/A   Clear
3:35 AM 50.7 °F 44.2 °F 78% 29.67 in 10.0 mi Calm Calm - N/A   Clear
3:55 AM 49.5 °F 43.9 °F 81% 29.67 in 10.0 mi Calm Calm - N/A   Clear
4:35 AM 47.8 °F 43.2 °F 84% 29.67 in 10.0 mi NW 10.4 mph - N/A   Clear
4:55 AM 51.6 °F 42.4 °F 71% 29.68 in 10.0 mi NW 10.4 mph - N/A   Clear
5:15 AM 51.3 °F 41.2 °F 68% 29.69 in 10.0 mi NW 11.5 mph - N/A   Clear
5:35 AM 50.9 °F 40.6 °F 68% 29.70 in 10.0 mi NW 13.8 mph - N/A   Clear
5:55 AM 49.6 °F 41.0 °F 72% 29.71 in 10.0 mi WNW 15.0 mph - N/A   Clear
6:15 AM 50.0 °F 41.4 °F 72% 29.72 in 10.0 mi WNW 16.1 mph 21.9 mph N/A   Clear
6:35 AM 50.5 °F 43.3 °F 76% 29.74 in 10.0 mi NW 15.0 mph 21.9 mph N/A   Clear
6:55 AM 50.4 °F 43.9 °F 78% 29.75 in 10.0 mi NW 15.0 mph 25.3 mph N/A   Clear
7:15 AM 50.4 °F 43.9 °F 78% 29.77 in 10.0 mi NNW 16.1 mph - N/A   Clear
7:35 AM 51.1 °F 44.2 °F 77% 29.78 in 10.0 mi NNW 16.1 mph 21.9 mph N/A   Clear
8:35 AM 56.8 °F 43.9 °F 62% 29.78 in 10.0 mi North 10.4 mph 17.3 mph N/A   Clear
8:55 AM 58.6 °F 43.9 °F 58% 29.79 in 10.0 mi NNW 13.8 mph 19.6 mph N/A   Clear
9:35 AM 62.1 °F 41.2 °F 46% 29.79 in 10.0 mi NNW 10.4 mph 16.1 mph N/A   Clear
9:55 AM 63.7 °F 39.6 °F 41% 29.79 in 10.0 mi NNW 12.7 mph - N/A   Clear
10:15 AM 64.8 °F 37.6 °F 37% 29.79 in 10.0 mi NNW 11.5 mph - N/A   Clear
10:35 AM 65.8 °F 36.7 °F 34% 29.78 in 10.0 mi NNW 11.5 mph - N/A   Clear
10:55 AM 66.7 °F 37.0 °F 33% 29.78 in 10.0 mi North 8.1 mph - N/A   Clear
11:15 AM 67.6 °F 35.1 °F 30% 29.77 in 10.0 mi North 4.6 mph - N/A   Clear
11:35 AM 69.4 °F 37.2 °F 31% 29.77 in 10.0 mi North 6.9 mph - N/A   Clear
11:55 AM 69.8 °F 36.3 °F 29% 29.77 in 10.0 mi NNE 5.8 mph - N/A   Clear
12:15 PM 70.9 °F 34.9 °F 27% 29.78 in 10.0 mi North 6.9 mph - N/A   Clear
12:35 PM 71.8 °F 30.9 °F 22% 29.78 in 10.0 mi NNE 8.1 mph - N/A   Clear
12:55 PM 71.8 °F 33.1 °F 24% 29.78 in 10.0 mi North 3.5 mph - N/A   Clear
1:15 PM 72.3 °F 32.7 °F 23% 29.78 in 10.0 mi NE 3.5 mph - N/A   Clear
1:35 PM 72.3 °F 30.6 °F 21% 29.78 in 10.0 mi Calm Calm - N/A   Clear
1:55 PM 72.9 °F 33.6 °F 24% 29.78 in 10.0 mi NE 4.6 mph - N/A   Clear
2:15 PM 73.8 °F 36.3 °F 26% 29.79 in 10.0 mi East 5.8 mph - N/A   Clear
2:35 PM 73.4 °F 32.5 °F 22% 29.79 in 10.0 mi WNW 4.6 mph - N/A   Clear
2:55 PM 73.9 °F 35.1 °F 24% 29.78 in 10.0 mi NE 3.5 mph - N/A   Clear
3:15 PM 75.0 °F 34.7 °F 23% 29.78 in 10.0 mi East 4.6 mph - N/A   Clear
3:35 PM 73.9 °F 34.2 °F 23% 29.78 in 10.0 mi East 3.5 mph - N/A   Clear
3:55 PM 75.6 °F 31.3 °F 20% 29.78 in 10.0 mi Calm Calm - N/A   Scattered Clouds
4:15 PM 75.6 °F 33.3 °F 21% 29.78 in 10.0 mi ENE 5.8 mph - N/A   Clear
4:35 PM 76.8 °F 35.1 °F 22% 29.77 in 10.0 mi SE 9.2 mph - N/A   Scattered Clouds
4:55 PM 76.8 °F 35.6 °F 22% 29.77 in 10.0 mi East 9.2 mph - N/A   Mostly Cloudy
5:15 PM 74.8 °F 40.3 °F 29% 29.77 in 10.0 mi NE 17.3 mph 21.9 mph N/A   Overcast
5:55 PM 72.1 °F 39.4 °F 30% 29.78 in 10.0 mi NE 12.7 mph - N/A   Scattered Clouds
6:15 PM 71.1 °F 43.3 °F 37% 29.78 in 10.0 mi NE 13.8 mph 18.4 mph N/A   Scattered Clouds
6:35 PM 72.1 °F 44.1 °F 36% 29.78 in 10.0 mi ENE 20.7 mph - N/A   Scattered Clouds
7:00 PM 70.7 °F 42.8 °F 36% 29.78 in 10.0 mi ENE 16.1 mph - N/A   Clear
7:15 PM 70.7 °F 41.7 °F 35% 29.77 in 10.0 mi ENE 18.4 mph 25.3 mph N/A   Clear
7:35 PM 68.4 °F 42.3 °F 39% 29.78 in 10.0 mi ENE 13.8 mph - N/A   Clear
7:55 PM 66.7 °F 41.2 °F 39% 29.83 in 10.0 mi North 28.8 mph 38.0 mph N/A   Mostly Cloudy
8:15 PM 63.7 °F 39.2 °F 41% 29.83 in 10.0 mi NNE 20.7 mph 40.3 mph N/A   Scattered Clouds
8:35 PM 60.4 °F 40.5 °F 48% 29.83 in 10.0 mi NNE 15.0 mph - N/A   Clear
8:55 PM 58.6 °F 41.4 °F 53% 29.83 in 10.0 mi NNE 15.0 mph - N/A   Clear
9:15 PM 56.7 °F 43.0 °F 60% 29.85 in 10.0 mi North 13.8 mph - N/A   Clear
9:35 PM 56.3 °F 44.4 °F 64% 29.86 in 10.0 mi NNE 12.7 mph - N/A   Clear
9:55 PM 54.9 °F 45.7 °F 71% 29.86 in 10.0 mi NNE 11.5 mph - N/A   Clear
10:15 PM 55.2 °F 45.1 °F 69% 29.87 in 10.0 mi NNE 11.5 mph - N/A   Clear
10:35 PM 53.8 °F 45.5 °F 74% 29.88 in 10.0 mi ENE 10.4 mph - N/A   Clear
10:55 PM 55.2 °F 44.4 °F 67% 29.89 in 10.0 mi ENE 9.2 mph - N/A   Clear
11:15 PM 54.0 °F 43.9 °F 69% 29.91 in 10.0 mi North 11.5 mph - N/A   Clear
11:35 PM 55.6 °F 45.0 °F 67% 29.91 in 10.0 mi NNE 9.2 mph - N/A   Mostly Cloudy
11:55 PM 54.0 °F 45.5 °F 73% 29.91 in 10.0 mi NE 8.1 mph - N/A   Scattered Clouds